651 Weather Reports


Display with metric or nautical units.
time (UTC)temp
F
wind
direction
speed
MPH
gust
MPH
rain 1hr
in
rain 24hr
in
rain mn
in
humidity
%
barometer
mb
20260504081600 66 0 0.0 0.0 0.00 0.00 0.00 55 1022.1
20260504080106 66 0 0.0 0.0 0.00 0.00 0.00 53 1021.8
20260504060109 58 0 0.0 0.0 0.00 0.00 0.00 63 1021.8
20260504050106 52 0 0.0 0.0 0.00 0.00 0.00 67 1021.5
20260504044601 52 0 0.0 1.0 0.00 0.00 0.00 67 1021.4
20260504043059 51 0 0.0 0.0 0.00 0.00 0.00 66 1021.2
20260504041605 52 0 0.0 2.0 0.00 0.00 0.00 64 1021.0
20260504034600 52 0 0.0 3.0 0.00 0.00 0.00 64 1020.8
20260504033057 51 242 0.0 2.0 0.00 0.00 0.00 64 1020.8
20260504031557 52 0 0.0 0.0 0.00 0.00 0.00 64 1020.9
20260504030100 52 242 0.0 1.0 0.00 0.00 0.00 64 1021.0
20260504024616 52 0 0.0 1.0 0.00 0.00 0.00 63 1021.0
20260504023058 53 0 0.0 1.0 0.00 0.00 0.00 63 1021.2
20260504021600 52 0 0.0 1.0 0.00 0.00 0.00 63 1021.2
20260504020057 51 0 0.0 0.0 0.00 0.00 0.00 68 1021.2
20260504014606 51 0 0.0 0.0 0.00 0.00 0.00 67 1021.2
20260504013101 51 0 0.0 0.0 0.00 0.00 0.00 66 1021.1
20260504011559 51 0 0.0 0.0 0.00 0.00 0.00 66 1021.1
20260504010105 51 0 0.0 0.0 0.00 0.00 0.00 66 1021.2
20260504004600 52 0 0.0 2.0 0.00 0.00 0.00 68 1021.1
20260504003100 53 0 0.0 3.0 0.00 0.00 0.00 66 1021.1
20260504001557 54 0 0.0 0.0 0.00 0.00 0.00 58 1021.2
20260504000139 54 0 0.0 1.0 0.00 0.00 0.00 58 1021.1
20260503234603 54 0 0.0 3.0 0.00 0.00 0.00 61 1021.3
20260503233057 54 0 0.0 1.0 0.00 0.00 0.00 61 1021.4
20260503231600 54 0 0.0 0.0 0.00 0.00 0.00 59 1021.5
20260503230058 54 0 0.0 1.0 0.00 0.00 0.00 59 1021.6
20260503224600 53 0 0.0 1.0 0.00 0.00 0.00 59 1021.8
20260503223100 53 0 0.0 1.0 0.00 0.00 0.00 59 1021.9
20260503221600 54 213 0.0 4.0 0.00 0.00 0.00 60 1022.0
20260503220100 54 0 0.0 1.0 0.00 0.00 0.00 59 1022.0
20260503214601 54 0 0.0 1.0 0.00 0.00 0.00 59 1021.9
20260503213107 54 0 0.0 1.0 0.00 0.00 0.00 58 1022.0
20260503211619 54 0 0.0 0.0 0.00 0.00 0.00 58 1021.9
20260503210101 55 0 0.0 1.0 0.00 0.00 0.00 57 1022.0
20260503204559 55 0 0.0 2.0 0.00 0.00 0.00 57 1021.9
20260503203113 56 0 0.0 2.0 0.00 0.00 0.00 56 1021.7
20260503201558 56 0 0.0 0.0 0.00 0.00 0.00 55 1021.6
20260503200057 55 0 0.0 0.0 0.00 0.00 0.00 57 1021.9
20260503194601 55 0 0.0 0.0 0.00 0.00 0.00 58 1021.9
20260503193058 55 0 0.0 0.0 0.00 0.00 0.00 58 1022.0
20260503191609 55 0 0.0 0.0 0.00 0.00 0.00 58 1021.9
20260503184603 54 0 0.0 0.0 0.00 0.00 0.00 56 1021.1
20260503183102 53 0 0.0 0.0 0.00 0.00 0.00 59 1021.3
20260503181605 54 0 0.0 0.0 0.00 0.00 0.00 57 1021.2
20260503180112 54 0 0.0 0.0 0.00 0.00 0.00 55 1021.3
20260503174600 54 0 0.0 0.0 0.00 0.00 0.00 58 1021.3
20260503173102 55 0 0.0 0.0 0.00 0.00 0.00 57 1021.0
20260503171603 55 0 0.0 0.0 0.00 0.00 0.00 55 1021.0
20260503150106 60 0 0.0 0.0 0.00 0.00 0.00 49 1021.3